Location: Allos
(44.2333°N, 6.6333°E)
Time: 23:04:55
(UTC+00:00)

Cosmos 1821 Rocket - Pass Details

Date: 20 April 2021
Orbit: 946 x 1003 km, 82.9° (Epoch: 16 May)

Event Time Altitude Azimuth Distance (km) Brightness Sun altitude
Rises 02:34:50 0° 345° (NNW) 3,704 7.4 -20.6°
Reaches altitude 10° 02:37:28 10° 339° (NNW) 2,759 6.6 -20.2°
Maximum altitude 02:43:22 43° 271° (W) 1,381 4.4 -19.4°
Enters shadow 02:45:35 32° 227° (SW) 1,649 4.6 -19.1°
